Haleyville, AL

8:52 AM CST on February 06, 2016 (GMT -0600)
Haleyville

Weather History for K1M4 - April, 2013

Change the Weather History Date:

Saturday, April 20, 2013

  Actual Average (KJFX) Record (KJFX)
Temperature  
Mean Temperature 46 °F -  
Max Temperature 61 °F 76 °F 89 °F (1964)
Min Temperature 31 °F 47 °F 28 °F (1983)
Degree Days  
Heating Degree Days 19    
Moisture  
Dew Point 33 °F    
Average Humidity 67    
Maximum Humidity 100    
Minimum Humidity 30    
Precipitation  
Precipitation 0.00 in - - ()
Sea Level Pressure  
Sea Level Pressure 30.27 in    
Wind  
Wind Speed 2 mph (North)    
Max Wind Speed 12 mph    
Max Gust Speed 18 mph    
Visibility 9 miles    
Events      
Averages and records for this station are not official NWS values.
T = Trace of Precipitation, MM = Missing Value Source: NWS Daily Summary

Daily Weather History Graph

Daily Weather History Graph

Search for Another Location

Airport or City:

Trip Planner

Search our weather history database for the weather conditions in past years. The results will help you decide how hot, cold, wet, or windy it might be!

Date:

Astronomy

Apr. 20, 2013 Rise Set
Actual Time 6:12 AM CDT 7:26 PM CDT
Civil Twilight 5:46 AM CDT 7:52 PM CDT
Nautical Twilight 5:15 AM CDT 8:23 PM CDT
Astronomical Twilight 4:43 AM CDT 8:55 PM CDT
Moon 2:22 PM CDT (4/20) 2:47 AM CDT (4/20)
Length of Visible Light 14h 05m
Length of Day
13h 13m
Waxing Gibbous, 71% of the Moon is Illuminated
Apr 20
Waxing Gibbous
Apr 25
Full
May 2
Last Quarter
May 9
New
May 17
First Quarter

Hourly Weather History & Observations

Time (CDT) Temp. Dew Point Humidity Pressure Visibility Wind Dir Wind Speed Gust Speed Precip Events Conditions
12:56 AM 34.0 °F 34.0 °F 100% 30.22 in 7.0 mi Calm Calm - N/A   Clear
1:56 AM 34.0 °F 34.0 °F 100% 30.22 in 7.0 mi Calm Calm - N/A   Clear
2:56 AM 32.9 °F 32.9 °F 100% 30.22 in 6.0 mi Calm Calm - N/A   Clear
3:56 AM 32.9 °F 32.9 °F 100% 30.22 in 7.0 mi Calm Calm - N/A   Clear
4:56 AM 32.0 °F 32.0 °F 100% 30.23 in 6.0 mi Calm Calm - N/A   Clear
5:56 AM 31.1 °F 31.1 °F 100% 30.24 in 5.0 mi Calm Calm - N/A   Clear
6:56 AM 32.0 °F 32.0 °F 100% 30.26 in 6.0 mi Calm Calm - N/A   Clear
7:56 AM 41.0 °F 37.9 °F 89% 30.28 in 10.0 mi Calm Calm - N/A   Clear
8:56 AM 48.9 °F 36.9 °F 63% 30.30 in 10.0 mi NNW 5.8 mph - N/A   Clear
9:56 AM 54.0 °F 28.0 °F 37% 30.31 in 10.0 mi NNW 8.1 mph - N/A   Clear
10:56 AM 55.9 °F 29.1 °F 36% 30.32 in 10.0 mi NW 8.1 mph - N/A   Clear
11:56 AM 57.9 °F 30.0 °F 35% 30.32 in 10.0 mi North 11.5 mph 18.4 mph N/A   Clear
12:56 PM 59.0 °F 32.0 °F 36% 30.30 in 10.0 mi NNW 9.2 mph - N/A   Clear
1:56 PM 61.0 °F 32.9 °F 35% 30.30 in 10.0 mi NNW 8.1 mph - N/A   Clear
2:56 PM 61.9 °F 31.1 °F 31% 30.28 in 10.0 mi North 10.4 mph - N/A   Clear
3:56 PM 61.9 °F 31.1 °F 31% 30.26 in 10.0 mi Variable 6.9 mph - N/A   Clear
4:56 PM 61.9 °F 30.0 °F 30% 30.25 in 10.0 mi North 4.6 mph - N/A   Clear
5:56 PM 61.9 °F 32.0 °F 33% 30.25 in 10.0 mi North 8.1 mph - N/A   Clear
6:56 PM 57.9 °F 31.1 °F 36% 30.25 in 10.0 mi NNE 3.5 mph - N/A   Clear
7:56 PM 48.9 °F 37.9 °F 66% 30.27 in 10.0 mi Calm Calm - N/A   Clear
8:56 PM 45.0 °F 37.9 °F 76% 30.29 in 10.0 mi Calm Calm - N/A   Clear
9:56 PM 43.9 °F 38.8 °F 82% 30.32 in 10.0 mi Calm Calm - N/A   Clear
10:56 PM 41.9 °F 38.8 °F 89% 30.32 in 10.0 mi Calm Calm - N/A   Clear
11:56 PM 39.9 °F 38.8 °F 96% 30.32 in 10.0 mi Calm Calm - N/A   Clear